COSMOS 2251 DEB, 33900

Orbit data source: Space-Track

COSMOS 2251 DEB, 33900 is space debris in LEO originally from a launch on Wed, 16 Jun 1993 UTC launched from the Plesetsk Missile And Space Complex (PKMTR). The debris from Iridium 33, an American commercial communications satellite, has been tracked extensively since its accidental collision with the defunct Russian satellite Cosmos 2251 in 2009. This event, occurring at high speed in low Earth orbit (LEO), generated thousands of pieces of space debris, significantly increasing the risk of further collisions. The Iridium 33 debris cloud has impacted space traffic management and orbital debris mitigation strategies, making it a subject of ongoing study in space situational awareness.

Loading next visibility...
Identifier
33900, 1993-036DD
Orbit
LEO
Country
Flag of CISCIS
Related business
Manufacturer
Unknown
Mission
Spacecraft
Bus & Motor
Unknown
Mass
Unknown
Launch date (UTC)
1993-06-16 (33 years ago)
Launch vehicle
Unknown
Launch site
Plesetsk Missile And Space Complex (PKMTR)
Object type
Payload
Rocket body
Debris
Shape & HBR
Unknown shape, 0.2 m
Radar Cross Section
Medium (>0.1 m² and <1 m²)

Expand to show TLE details & history
Last TLE update: 15 hours ago

TLE from 15 hours ago
0 COSMOS 2251 DEB
1 33900U 93036DD  26228.46304696  .00000771  00000-0  16730-3 0  9999
2 33900  74.0153 249.3986 0048593 336.6253  93.1654 14.59228619926344
Epoch: 2026-08-16T11:06Z
TLE epoch observation values (Epoch: 2026-08-16T11:06:47.257Z)
Latitude
64.96787°
Longitude
155.44032°
Altitude
708.583 km
Speed
7.507 km/s
True Right ascension
19h 07m 59s
True Declination
64° 50' 05"
Sunlit
Object was in daylight at epoch
Visualization orbit readout
Latitude
Unknown
Longitude
Unknown
Altitude
Unknown
Speed
Unknown
Apparent Right ascension
Unknown
Apparent Declination
Unknown
Sunlit
N/A
Visualization observer readout
Local Sidereal Time
16:26:38
Azimuth
Unknown
Elevation
Unknown
Doppler factor
Unknown
Orbital elements
Apogee altitude
727.628 km
Perigee altitude
658.904 km
Semi-major axis
7,071.403 km
Eccentricity
0.00486
Inclination
74.0153°
RAAN
249.3986°
Arg. of periapsis
336.6253°
True anomaly
93.72119°
Mean anomaly
93.1654°
Eccentric anomaly
93.44331°
Mean motion
3.64993 °/min
Orbital period
98.63 mins
BSTAR
0.0001673

Documentation

Showing up to 5 results
|